Elwood, KS

1:29 PM CST on December 05, 2016 (GMT -0600)
Rosecrans Memorial

Weather History for KSTJ - June, 2014

Change the Weather History Date:

Sunday, June 8, 2014

  Actual Average Record
Temperature  
Mean Temperature 67 °F 72 °F  
Max Temperature 75 °F 83 °F 100 °F (1972)
Min Temperature 59 °F 62 °F 47 °F (1930)
Degree Days  
Heating Degree Days 0 0  
Month to date heating degree days 0 6  
Since 1 June heating degree days 0 6  
Since 1 July heating degree days 6269 5456  
Cooling Degree Days 2 8  
Month to date cooling degree days 65 54  
Year to date cooling degree days 226 167  
Since 1 June cooling degree days 65 54  
Growing Degree Days 16 (Base 50)    
Moisture  
Dew Point 59 °F    
Average Humidity 77    
Maximum Humidity 90    
Minimum Humidity 64    
Precipitation  
Precipitation 0.00 in 0.16 in 3.74 in (1920)
Month to date precipitation 4.41 1.30  
Year to date precipitation 12.18 14.25  
Sea Level Pressure  
Sea Level Pressure 30.01 in    
Wind  
Wind Speed 6 mph (NE)    
Max Wind Speed 13 mph    
Max Gust Speed 16 mph    
Visibility 10 miles    
Events      
T = Trace of Precipitation, MM = Missing Value Source: NWS Daily Summary

Daily Weather History Graph

Daily Weather History Graph

Search for Another Location

Airport or City:

Trip Planner

Search our weather history database for the weather conditions in past years. The results will help you decide how hot, cold, wet, or windy it might be!

Date:

Astronomy

Jun. 08, 2014 Rise Set
Actual Time 5:51 AM CDT 8:46 PM CDT
Civil Twilight 5:19 AM CDT 9:18 PM CDT
Nautical Twilight 4:38 AM CDT 9:59 PM CDT
Astronomical Twilight 3:51 AM CDT 10:46 PM CDT
Moon 4:06 PM CDT (6/8) 2:44 AM CDT (6/8)
Length of Visible Light 15h 59m
Length of Day
14h 54m
Waxing Gibbous, 77% of the Moon is Illuminated
Jun 8
Waxing Gibbous
Jun 12
Full
Jun 19
Last Quarter
Jun 27
New
Jul 5
First Quarter

Hourly Weather History & Observations

Time (CDT) Temp. Dew Point Humidity Pressure Visibility Wind Dir Wind Speed Gust Speed Precip Events Conditions
12:53 AM 64.0 °F 59.0 °F 84% 29.98 in 10.0 mi North 13.8 mph - N/A   Clear
1:53 AM 63.0 °F 57.9 °F 84% 29.99 in 10.0 mi North 11.5 mph - N/A   Clear
2:53 AM 62.1 °F 57.9 °F 86% 29.99 in 10.0 mi North 9.2 mph - N/A   Clear
3:53 AM 60.1 °F 57.0 °F 90% 30.00 in 10.0 mi North 6.9 mph - N/A   Partly Cloudy
4:49 AM 60.8 °F 55.4 °F 82% 30.05 in 10.0 mi North 3.5 mph - N/A   Mostly Cloudy
4:53 AM 60.1 °F 55.9 °F 86% 30.04 in 10.0 mi North 3.5 mph - N/A   Mostly Cloudy
5:06 AM 61.0 °F 55.9 °F 83% 30.05 in 10.0 mi North 5.8 mph - N/A   Overcast
5:53 AM 60.1 °F 55.9 °F 86% 30.04 in 10.0 mi NE 8.1 mph - N/A   Overcast
6:22 AM 60.1 °F 55.9 °F 86% 30.05 in 10.0 mi NE 6.9 mph - N/A   Overcast
6:53 AM 60.1 °F 55.9 °F 86% 30.04 in 10.0 mi NNE 4.6 mph - N/A   Overcast
7:53 AM 61.0 °F 57.0 °F 87% 30.04 in 8.0 mi ENE 8.1 mph - N/A   Overcast
8:53 AM 62.1 °F 57.9 °F 86% 30.05 in 8.0 mi East 4.6 mph - N/A   Overcast
9:53 AM 63.0 °F 59.0 °F 87% 30.04 in 8.0 mi East 8.1 mph - N/A   Overcast
10:53 AM 64.9 °F 60.1 °F 84% 30.03 in 8.0 mi ENE 5.8 mph - N/A   Overcast
11:01 AM 66.0 °F 60.1 °F 81% 30.04 in 8.0 mi East 5.8 mph - N/A   Overcast
11:53 AM 66.9 °F 60.1 °F 79% 30.04 in 9.0 mi SSW 5.8 mph - N/A   Overcast
12:53 PM 69.1 °F 60.1 °F 73% 30.03 in 10.0 mi SW 8.1 mph - N/A   Overcast
1:15 PM 69.1 °F 60.1 °F 73% 30.05 in 10.0 mi SW 4.6 mph - N/A   Overcast
1:53 PM 70.0 °F 61.0 °F 73% 30.03 in 10.0 mi West 4.6 mph - N/A   Overcast
2:53 PM 71.1 °F 61.0 °F 70% 30.01 in 10.0 mi WSW 8.1 mph - N/A   Overcast
3:53 PM 72.0 °F 60.1 °F 66% 29.99 in 10.0 mi Calm Calm - N/A   Mostly Cloudy
4:20 PM 72.0 °F 61.0 °F 68% 29.99 in 10.0 mi East 4.6 mph - N/A   Overcast
4:53 PM 73.0 °F 60.1 °F 64% 29.97 in 10.0 mi Variable 3.5 mph - N/A   Overcast
5:53 PM 73.0 °F 60.1 °F 64% 29.95 in 10.0 mi ESE 3.5 mph - N/A   Overcast
6:53 PM 73.9 °F 60.1 °F 62% 29.94 in 10.0 mi ESE 5.8 mph - N/A   Clear
7:53 PM 72.0 °F 61.0 °F 68% 29.95 in 10.0 mi East 5.8 mph - N/A   Partly Cloudy
8:53 PM 71.1 °F 62.1 °F 73% 29.96 in 10.0 mi ENE 5.8 mph - N/A   Overcast
9:53 PM 69.1 °F 61.0 °F 75% 29.96 in 10.0 mi East 6.9 mph - N/A   Clear
10:53 PM 66.9 °F 61.0 °F 81% 29.95 in 10.0 mi East 4.6 mph - N/A   Clear
11:53 PM 66.0 °F 61.0 °F 84% 29.94 in 10.0 mi East 4.6 mph - N/A   Clear